| time (UTC) | temp C | wind direction | speed KPH | gust KPH | rain 1hr cm | rain 24hr cm | rain mn cm | humidity % | barometer mb |
| 20260509212107 | 29 | 22 | 3.2 | 6.4 | 0.00 | 0.05 | 0.05 | 65 | 1006.9 |
| 20260509211107 | 29 | 117 | 4.8 | 8.0 | 0.00 | 0.05 | 0.05 | 68 | 1007.0 |
| 20260509210107 | 29 | 177 | 0.0 | 6.4 | 0.00 | 0.05 | 0.05 | 70 | 1007.1 |
| 20260509205107 | 28 | 251 | 3.2 | 9.7 | 0.00 | 0.05 | 0.05 | 69 | 1007.3 |
| 20260509203107 | 28 | 271 | 6.4 | 9.7 | 0.00 | 0.05 | 0.05 | 73 | 1007.4 |
| 20260509202107 | 27 | 219 | 4.8 | 11.3 | 0.00 | 0.05 | 0.05 | 74 | 1007.5 |
| 20260509201107 | 27 | 74 | 0.0 | 4.8 | 0.00 | 0.05 | 0.05 | 80 | 1007.6 |
| 20260509200107 | 26 | 74 | 0.0 | 0.0 | 0.00 | 0.05 | 0.05 | 79 | 1007.8 |
| 20260509195107 | 26 | 74 | 0.0 | 0.0 | 0.00 | 0.05 | 0.05 | 79 | 1007.9 |
| 20260509194107 | 26 | 74 | 0.0 | 1.6 | 0.00 | 0.05 | 0.05 | 77 | 1008.0 |
| 20260509193107 | 26 | 74 | 0.0 | 6.4 | 0.00 | 0.05 | 0.05 | 77 | 1008.0 |
| 20260509192107 | 27 | 82 | 6.4 | 8.0 | 0.00 | 0.05 | 0.05 | 74 | 1008.1 |
| 20260509185107 | 27 | 205 | 1.6 | 6.4 | 0.00 | 0.05 | 0.05 | 72 | 1008.2 |
| 20260509184107 | 27 | 48 | 0.0 | 3.2 | 0.00 | 0.05 | 0.05 | 73 | 1008.2 |
| 20260509182107 | 27 | 88 | 6.4 | 12.9 | 0.00 | 0.05 | 0.05 | 71 | 1008.3 |
| 20260509181107 | 27 | 39 | 3.2 | 6.4 | 0.00 | 0.05 | 0.05 | 75 | 1008.3 |
| 20260509180107 | 27 | 211 | 1.6 | 4.8 | 0.00 | 0.05 | 0.05 | 75 | 1008.4 |
| 20260509175107 | 27 | 111 | 3.2 | 9.7 | 0.00 | 0.05 | 0.05 | 74 | 1008.6 |
| 20260509174107 | 26 | 45 | 3.2 | 6.4 | 0.00 | 0.05 | 0.05 | 78 | 1008.7 |
| 20260509172107 | 25 | 238 | 1.6 | 6.4 | 0.00 | 0.05 | 0.05 | 80 | 1008.7 |
| 20260509171107 | 25 | 238 | 0.0 | 4.8 | 0.00 | 0.05 | 0.05 | 81 | 1008.8 |
| 20260509164107 | 25 | 223 | 0.0 | 6.4 | 0.00 | 0.05 | 0.05 | 81 | 1008.9 |
| 20260509163107 | 25 | 292 | 4.8 | 8.0 | 0.00 | 0.05 | 0.05 | 84 | 1009.0 |
| 20260509162107 | 25 | 292 | 0.0 | 8.0 | 0.00 | 0.05 | 0.05 | 83 | 1009.0 |
| 20260509161107 | 25 | 319 | 1.6 | 6.4 | 0.00 | 0.05 | 0.05 | 84 | 1008.9 |
| 20260509160107 | 24 | 101 | 0.0 | 4.8 | 0.00 | 0.05 | 0.05 | 84 | 1009.0 |
| 20260509155107 | 24 | 252 | 1.6 | 4.8 | 0.00 | 0.05 | 0.05 | 85 | 1008.9 |
| 20260509154107 | 23 | 302 | 0.0 | 4.8 | 0.00 | 0.05 | 0.05 | 87 | 1008.8 |
| 20260509153107 | 22 | 302 | 3.2 | 4.8 | 0.00 | 0.05 | 0.05 | 86 | 1008.9 |
| 20260509152107 | 22 | 42 | 3.2 | 4.8 | 0.00 | 0.05 | 0.05 | 88 | 1008.9 |
| 20260509151107 | 22 | 30 | 3.2 | 6.4 | 0.00 | 0.05 | 0.05 | 89 | 1009.0 |
| 20260509150107 | 21 | 40 | 0.0 | 0.0 | 0.00 | 0.05 | 0.05 | 90 | 1009.0 |
| 20260509145107 | 20 | 346 | 0.0 | 0.0 | 0.00 | 0.05 | 0.05 | 90 | 1009.2 |
| 20260509144107 | 20 | 346 | 0.0 | 0.0 | 0.00 | 0.05 | 0.05 | 90 | 1009.3 |
| 20260509143107 | 20 | 346 | 0.0 | 0.0 | 0.00 | 0.05 | 0.05 | 90 | 1009.3 |
| 20260509142107 | 20 | 346 | 0.0 | 0.0 | 0.03 | 0.05 | 0.05 | 90 | 1009.3 |
| 20260509141107 | 20 | 346 | 0.0 | 1.6 | 0.03 | 0.05 | 0.05 | 90 | 1009.3 |
| 20260509140107 | 20 | 346 | 0.0 | 1.6 | 0.03 | 0.05 | 0.05 | 91 | 1009.3 |
| 20260509135107 | 19 | 346 | 0.0 | 0.0 | 0.03 | 0.05 | 0.05 | 91 | 1009.3 |
| 20260509134107 | 19 | 346 | 0.0 | 1.6 | 0.03 | 0.05 | 0.05 | 91 | 1009.4 |
| 20260509133107 | 19 | 346 | 0.0 | 4.8 | 0.03 | 0.05 | 0.05 | 90 | 1009.4 |
| 20260509132107 | 18 | 333 | 0.0 | 1.6 | 0.00 | 0.03 | 0.03 | 90 | 1009.5 |
| 20260509131107 | 18 | 333 | 0.0 | 1.6 | 0.00 | 0.03 | 0.03 | 90 | 1009.4 |
| 20260509130107 | 18 | 333 | 1.6 | 3.2 | 0.00 | 0.03 | 0.03 | 91 | 1009.4 |
| 20260509125107 | 18 | 331 | 0.0 | 0.0 | 0.00 | 0.03 | 0.03 | 91 | 1009.4 |
| 20260509124107 | 18 | 331 | 0.0 | 0.0 | 0.00 | 0.03 | 0.03 | 91 | 1009.4 |
| 20260509123107 | 18 | 331 | 0.0 | 0.0 | 0.00 | 0.03 | 0.03 | 91 | 1009.2 |
| 20260509122107 | 18 | 331 | 0.0 | 0.0 | 0.00 | 0.03 | 0.03 | 91 | 1009.1 |
| 20260509121107 | 18 | 331 | 0.0 | 0.0 | 0.00 | 0.03 | 0.03 | 91 | 1009.0 |
| 20260509120107 | 18 | 331 | 0.0 | 0.0 | 0.00 | 0.03 | 0.03 | 91 | 1008.8 |
| 20260509115107 | 17 | 331 | 0.0 | 0.0 | 0.00 | 0.03 | 0.03 | 91 | 1008.6 |
| 20260509114108 | 17 | 331 | 0.0 | 0.0 | 0.00 | 0.03 | 0.03 | 91 | 1008.4 |
| 20260509113108 | 17 | 331 | 0.0 | 0.0 | 0.00 | 0.03 | 0.03 | 91 | 1008.1 |
| 20260509112107 | 17 | 331 | 0.0 | 0.0 | 0.00 | 0.03 | 0.03 | 91 | 1007.8 |
| 20260509103107 | 17 | 331 | 0.0 | 0.0 | 0.00 | 0.03 | 0.03 | 91 | 1007.7 |
| 20260509102107 | 17 | 331 | 0.0 | 0.0 | 0.00 | 0.03 | 0.03 | 91 | 1007.9 |
| 20260509101107 | 17 | 331 | 0.0 | 0.0 | 0.00 | 0.03 | 0.03 | 91 | 1007.9 |
| 20260509100108 | 17 | 331 | 0.0 | 0.0 | 0.03 | 0.03 | 0.03 | 91 | 1007.9 |
| 20260509094108 | 17 | 331 | 0.0 | 0.0 | 0.03 | 0.03 | 0.03 | 90 | 1007.8 |
| 20260509093107 | 17 | 331 | 0.0 | 0.0 | 0.03 | 0.03 | 0.03 | 91 | 1007.7 |
| 20260509092107 | 17 | 331 | 0.0 | 0.0 | 0.03 | 0.03 | 0.03 | 91 | 1007.9 |
| 20260509090107 | 17 | 331 | 0.0 | 0.0 | 0.00 | 0.00 | 0.00 | 91 | 1008.0 |
| 20260509085107 | 17 | 331 | 0.0 | 0.0 | 0.00 | 0.00 | 0.00 | 91 | 1007.9 |
| 20260509084107 | 17 | 331 | 0.0 | 0.0 | 0.00 | 0.00 | 0.00 | 91 | 1007.9 |
| 20260509083107 | 17 | 331 | 0.0 | 0.0 | 0.00 | 0.00 | 0.00 | 91 | 1007.9 |
| 20260509081107 | 17 | 331 | 0.0 | 0.0 | 0.00 | 0.00 | 0.00 | 90 | 1008.3 |
| 20260509080108 | 17 | 331 | 0.0 | 0.0 | 0.00 | 0.00 | 0.00 | 90 | 1008.2 |
| 20260509075107 | 17 | 331 | 0.0 | 0.0 | 0.00 | 0.00 | 0.00 | 90 | 1008.2 |
| 20260509074108 | 17 | 331 | 0.0 | 0.0 | 0.00 | 0.00 | 0.00 | 90 | 1008.0 |
| 20260509073108 | 17 | 331 | 0.0 | 0.0 | 0.00 | 0.00 | 0.00 | 90 | 1008.4 |
| 20260509072107 | 17 | 331 | 0.0 | 0.0 | 0.00 | 0.00 | 0.00 | 89 | 1008.4 |
| 20260509071108 | 17 | 331 | 0.0 | 0.0 | 0.00 | 0.00 | 0.00 | 89 | 1008.6 |
| 20260509065107 | 17 | 331 | 0.0 | 0.0 | 0.00 | 0.00 | 0.00 | 89 | 1009.0 |
| 20260509063107 | 17 | 331 | 0.0 | 0.0 | 0.00 | 0.00 | 0.00 | 88 | 1008.9 |
| 20260509062107 | 17 | 331 | 0.0 | 0.0 | 0.00 | 0.00 | 0.00 | 88 | 1009.0 |
| 20260509055107 | 17 | 329 | 3.2 | 3.2 | 0.00 | 0.00 | 0.00 | 89 | 1009.4 |
| 20260509053107 | 17 | 327 | 0.0 | 0.0 | 0.00 | 0.00 | 0.00 | 88 | 1009.4 |
| 20260509052108 | 17 | 327 | 0.0 | 0.0 | 0.00 | 0.00 | 0.00 | 87 | 1009.3 |
| 20260509051107 | 17 | 327 | 0.0 | 0.0 | 0.00 | 0.00 | 0.00 | 87 | 1009.1 |
| 20260509050108 | 17 | 327 | 0.0 | 0.0 | 0.00 | 0.00 | 0.00 | 87 | 1008.5 |
| 20260509045107 | 17 | 327 | 0.0 | 0.0 | 0.00 | 0.00 | 0.00 | 87 | 1008.3 |
| 20260509044108 | 18 | 327 | 0.0 | 0.0 | 0.00 | 0.00 | 0.00 | 87 | 1008.7 |
| 20260509043107 | 17 | 327 | 0.0 | 3.2 | 0.00 | 0.00 | 0.00 | 87 | 1008.1 |
| 20260509042108 | 17 | 70 | 0.0 | 0.0 | 0.00 | 0.00 | 0.00 | 88 | 1008.6 |
| 20260509040107 | 18 | 70 | 0.0 | 0.0 | 0.00 | 0.00 | 0.00 | 87 | 1009.2 |
| 20260509035107 | 18 | 70 | 0.0 | 0.0 | 0.00 | 0.00 | 0.00 | 86 | 1009.2 |
| 20260509034108 | 18 | 70 | 0.0 | 1.6 | 0.00 | 0.00 | 0.00 | 86 | 1009.1 |
| 20260509033108 | 18 | 70 | 0.0 | 8.0 | 0.00 | 0.00 | 0.00 | 86 | 1009.4 |
| 20260509031107 | 18 | 220 | 0.0 | 3.2 | 0.00 | 0.00 | 0.00 | 87 | 1009.2 |
| 20260509025107 | 19 | 220 | 0.0 | 3.2 | 0.00 | 0.00 | 0.00 | 85 | 1007.4 |
| 20260509024107 | 18 | 220 | 1.6 | 4.8 | 0.00 | 0.00 | 0.00 | 86 | 1007.1 |
| 20260509023108 | 19 | 220 | 3.2 | 6.4 | 0.00 | 0.00 | 0.00 | 87 | 1006.8 |
| 20260509022108 | 19 | 220 | 1.6 | 4.8 | 0.00 | 0.00 | 0.00 | 88 | 1007.0 |
| 20260509021107 | 19 | 108 | 0.0 | 8.0 | 0.00 | 0.00 | 0.00 | 88 | 1007.4 |
| 20260509020107 | 19 | 111 | 0.0 | 0.0 | 0.00 | 0.00 | 0.00 | 88 | 1007.2 |
| 20260509015108 | 20 | 111 | 0.0 | 0.0 | 0.00 | 0.00 | 0.00 | 87 | 1007.0 |
| 20260509014107 | 20 | 111 | 0.0 | 1.6 | 0.00 | 0.00 | 0.00 | 86 | 1007.5 |
| 20260509013108 | 20 | 111 | 0.0 | 0.0 | 0.00 | 0.00 | 0.00 | 85 | 1007.3 |
| 20260509012108 | 21 | 111 | 0.0 | 1.6 | 0.00 | 0.00 | 0.00 | 84 | 1007.2 |
| 20260509011107 | 21 | 111 | 0.0 | 0.0 | 0.00 | 0.00 | 0.00 | 82 | 1007.2 |
| 20260509010107 | 22 | 111 | 0.0 | 0.0 | 0.00 | 0.00 | 0.00 | 81 | 1007.0 |
| 20260509005107 | 22 | 111 | 0.0 | 0.0 | 0.00 | 0.00 | 0.00 | 80 | 1006.8 |
| 20260509004107 | 22 | 111 | 0.0 | 0.0 | 0.00 | 0.00 | 0.00 | 79 | 1006.8 |
| 20260509003107 | 23 | 321 | 0.0 | 1.6 | 0.00 | 0.00 | 0.00 | 78 | 1006.6 |
| 20260509002108 | 23 | 316 | 0.0 | 4.8 | 0.00 | 0.00 | 0.00 | 75 | 1006.2 |
| 20260509001108 | 23 | 316 | 0.0 | 4.8 | 0.00 | 0.00 | 0.00 | 74 | 1006.0 |
| 20260509000107 | 23 | 315 | 3.2 | 6.4 | 0.00 | 0.00 | 0.00 | 73 | 1006.1 |
| 20260508235107 | 23 | 105 | 4.8 | 8.0 | 0.00 | 0.00 | 0.00 | 73 | 1006.4 |
| 20260508234108 | 23 | 80 | 4.8 | 8.0 | 0.00 | 0.00 | 0.00 | 72 | 1006.4 |
| 20260508233108 | 23 | 201 | 0.0 | 4.8 | 0.00 | 0.00 | 0.00 | 72 | 1006.9 |
| 20260508231107 | 23 | 201 | 1.6 | 3.2 | 0.00 | 0.00 | 0.00 | 72 | 1007.5 |
| 20260508230108 | 23 | 201 | 1.6 | 4.8 | 0.00 | 0.00 | 0.00 | 70 | 1007.6 |
| 20260508225107 | 23 | 202 | 3.2 | 8.0 | 0.00 | 0.00 | 0.00 | 70 | 1007.8 |
| 20260508224107 | 24 | 82 | 0.0 | 9.7 | 0.00 | 0.00 | 0.00 | 69 | 1007.8 |
| 20260508223107 | 24 | 227 | 0.0 | 6.4 | 0.00 | 0.00 | 0.00 | 68 | 1007.7 |
| 20260508222107 | 24 | 323 | 0.0 | 6.4 | 0.00 | 0.00 | 0.00 | 66 | 1007.8 |
| 20260508221107 | 24 | 9 | 1.6 | 6.4 | 0.00 | 0.00 | 0.00 | 63 | 1007.6 |
| 20260508220107 | 24 | 304 | 0.0 | 6.4 | 0.00 | 0.00 | 0.00 | 64 | 1007.6 |
| 20260508215107 | 24 | 247 | 1.6 | 11.3 | 0.00 | 0.00 | 0.00 | 63 | 1007.6 |